Location: Quaker Farms
(41.4276°N, 73.1557°W)
Time: 13:08:15
(UTC+00:00)

Courier 1B Rocket - Visible Passes

Search period start: 22 June 2021 00:00
Search period end: 02 July 2021 00:00
Orbit: 920 x 1202 km, 28.2° (Epoch: 21 June)

Date Brightness Start Highest point End Pass type
(mag) Time Alt. Az. Time Alt. Az. Time Alt. Az.
22 Jun 6.2 01:40:23 10° WSW 01:45:29 24° S 01:48:53 16° SSE visible
22 Jun 7.0 03:35:00 10° SW 03:35:15 10° SW 03:35:15 10° SW visible
23 Jun 6.4 02:33:04 10° WSW 02:37:10 17° SSW 02:37:48 17° S visible
24 Jun 6.4 01:31:33 10° WSW 01:36:26 21° SSW 01:40:21 13° SSE visible
25 Jun 6.7 02:24:56 10° SW 02:28:03 14° SSW 02:29:14 13° S visible
26 Jun 6.7 01:22:56 10° WSW 01:27:21 18° SSW 01:31:37 10° SSE visible
28 Jun 6.9 01:14:41 10° SW 01:18:12 14° SSW 01:21:37 10° S visible
30 Jun 7.2 01:07:39 10° SW 01:08:59 11° SSW 01:10:20 10° SSW visible
